Location: Newark
(41.2758°N, 92.6808°W)
Time: 06:03:13
(UTC+00:00)

N. Korean satellite - Pass Details

Date: 30 September 2019
Orbit: 455 x 508 km, 97.2° (Epoch: 20 October)

Event Time Altitude Azimuth Distance (km) Brightness Sun altitude
Rises 00:18:46 0° 208° (SSW) 2,510 10.6 -5.1°
Reaches altitude 10° 00:21:38 10° 234° (SW) 1,628 10.1 -5.6°
Maximum altitude 00:23:32 14° 267° (W) 1,394 10.5 -6.0°
Drops below altitude 10° 00:25:27 10° 301° (WNW) 1,622 10.3 -6.3°
Sets 00:28:18 0° 327° (NNW) 2,494 10.7 -6.9°
